Location: Buchloe
(48.0161°N, 10.7316°E)
Time: 09:09:25
(UTC+01:00)

ISS - Visible Passes

Search period start: 24 February 2018 00:00
Search period end: 06 March 2018 00:00
Orbit: 402 x 407 km, 51.6° (Epoch: 24 February)

Date Brightness Start Highest point End Pass type
(mag) Time Alt. Az. Time Alt. Az. Time Alt. Az.
26 Feb -1.1 06:24:32 10° S 06:26:54 19° SE 06:29:17 10° E visible
27 Feb -0.7 05:33:56 10° SSE 05:34:55 11° SE 05:35:54 10° ESE visible
28 Feb -2.4 06:15:37 10° SW 06:18:40 36° SE 06:21:42 10° ENE visible
01 Mar -1.6 05:24:11 11° S 05:26:34 22° SE 05:29:11 10° E visible
02 Mar -1.1 04:34:22 13° SE 04:34:30 13° SE 04:36:12 10° ESE visible
02 Mar -3.6 06:07:14 10° WSW 06:10:30 70° SSE 06:13:45 10° ENE visible
03 Mar -2.9 05:17:04 29° SSW 05:18:17 43° SSE 05:21:25 10° ENE visible
04 Mar -1.6 04:26:59 23° ESE 04:26:59 23° ESE 04:28:55 10° E visible
04 Mar -3.8 05:59:38 14° WSW 06:02:23 71° NNW 06:05:40 10° ENE visible
05 Mar -3.9 05:09:28 56° SW 05:10:03 81° SSE 05:13:21 10° ENE visible
